User: anonymous   Login
Location: Camp Creek
(33.9000°N, 111.8167°W)
Time: 17:22:04
(UTC-07:00)
Language:

Cosmos 1656 - Orbit

View from above orbital plane
View from above orbital plane
View from above satellite
View from above satellite

Ground track
Ground track

The orbit data is extracted from the following two-line orbital elements,

1 15755U 85042A   17080.65740808 -.00000096 +00000-0 -22594-4 0  9999
2 15755 071.1123 187.6484 0035864 190.8453 169.1905 14.20409068647994
Epoch (UTC): 21 March 2017 15:46:40
Eccentricity: 0.0035864
inclination: 71.1123°
perigee height: 798 km
apogee height: 850 km
right ascension of ascending node: 187.6484°
argument of perigee: 190.8453°
revolutions per day: 14.20409068
mean anomaly at epoch: 169.1905°
orbit number at epoch: 64799

The dashed part of the orbit path shows where the satellite is in the earth's shadow,  

DLR